Home > Weather > Munich > Past weeks

Flag for Germany Weather for the Past 2 Weeks in Munich, Bavaria, Germany

Now
41 °F

Scattered clouds.


Feels Like: 37 °F
Forecast: 36 / 60 °F
Wind: 6 mph from West

Location: Oberpfaffenhofen

Current Time: May 4, 2016 at 8:09:51 AM

Latest Report: May 4, 2016 at 6:50 AM


Visibility: N/A

Pressure: 30.30 "Hg (28.40 "Hg at 526m altitude)

Humidity: 93%

Dew Point: 39 °F

Location of MunichLocation

Historic Weather in Munich — Graph

°F

Munich Temperature Yesterday

Maximum temperature yesterday: 59 °F (at 1:20 PM)
Minimum temperature yesterday: 46 °F (at 6:50 AM)
Average temperature yesterday: 52 °F

High & Low Weather Summary for the Past Weeks

 TemperatureHumidityPressure
High66 °F (Apr 22, 4:50 PM)100% (Apr 20, 7:20 AM)30.36 "Hg (Apr 20, 7:20 AM)
Low28 °F (Apr 29, 6:50 AM)27% (Apr 29, 5:50 PM)29.59 "Hg (Apr 26, 8:50 AM)
Average48 °F65%30.01 "Hg
* Reported Apr 18 6:20 PM — May 3 6:50 PM, Munich, Weather by CustomWeather, © 2016

Note: Actual official high and low records may vary slightly from our data, if they occured in-between our weather recording intervals... More about our weather records

Advertising

Munich Weather History for the Previous 24 Hours

Scroll right to see more
 ConditionsComfort  
Time TempWeatherWind HumidityBarometerVisibility
6:50 PM
Tue, May 3
48 °FBroken clouds.10 mph94%30.12 "HgN/A
6:20 PM46 °FRain showers. Broken clouds.13 mph93%30.09 "HgN/A
5:50 PM48 °FSprinkles. Broken clouds.13 mph87%30.09 "HgN/A
5:20 PM48 °FSprinkles. Broken clouds.16 mph87%30.09 "HgN/A
4:50 PM54 °FSprinkles. Broken clouds.12 mph63%30.07 "HgN/A
4:20 PM55 °FBroken clouds.14 mph63%30.07 "HgN/A
3:50 PM54 °FScattered clouds.15 mph63%30.07 "HgN/A
3:20 PM54 °FBroken clouds.14 mph63%30.07 "HgN/A
2:50 PM57 °FBroken clouds.13 mph51%30.04 "HgN/A
2:20 PM54 °FBroken clouds.13 mph63%30.07 "HgN/A
1:20 PM59 °FBroken clouds.17 mph51%30.04 "HgN/A
12:50 PM55 °FLight rain. Broken clouds.16 mph59%30.04 "HgN/A
12:20 PM57 °FScattered clouds.9 mph59%30.07 "HgN/A
11:50 AM57 °FSunny.9 mph63%30.07 "Hg10 mi
11:20 AM57 °FSunny.10 mph59%30.07 "Hg10 mi
10:50 AM54 °FSunny.9 mph67%30.07 "Hg10 mi
10:20 AM54 °FSunny.9 mph67%30.07 "Hg10 mi
9:50 AM54 °FSunny.10 mph72%30.07 "Hg10 mi
9:20 AM52 °FSunny.14 mph77%30.09 "Hg10 mi
8:50 AM52 °FSunny.13 mph77%30.07 "Hg10 mi
8:20 AM50 °FSunny.12 mph82%30.07 "Hg10 mi
Weather by CustomWeather, © 2016

See weather overviewHow to use our weather pages